ONEWEB-0065 (45164 NORAD) Tracking and Keplerian Element Data

This shows tracking and keplerian element data for the satellite.

Feedback or suggestion? Click here.




ElementValue
Catalog45164
NameONEWEB-0065
Epoch Orbit925
Epoch Day94.0931744
Epoch Year2020
RAAN145.4849
Inclination87.4315
Eccentricity0.0025919
Argument of Perigee97.7098
Mean Anonmoly262.7063
Mean Motion14.68890014
Decay Rate-0.00346338
L11 45164U 20008AK 20094.09317440 -.00346338 00000-0 -62063-1 0 9990
L22 45164 87.4315 145.4849 0025919 97.7098 262.7063 14.68890014 9254

Live tracking and technical data element details for ONEWEB-0065 (NORAD 45164). ONEWEB-0065 can be tracked NOW for your location showing map with azimuth and elevation plus other details from your city location.

Track the satellite on the map from your city or location and see movement details for azimuth, elevation, latitude, longitude, range, height, and movement on the map or in text.







IsCatalogInMostPopularTable: catalog: 45164, numindb: 22
Update: records affected: 1



GetName: 45164 ONEWEB-0065

Hit Count: updated at: Mon, 06 Apr 2020 11:12:44 GMT